sat.trackr.live / text

‹ back to catalog

SJ-9B

NORAD 38861 · 2012-056B

PAYLOAD ACTIVE UNKNOWN

§ Identity

Operator
Country
PRC
Launch date
2012-10-14
Launch site
TAISC
Launch vehicle
Mass (kg)
RCS (m²)
1.00

External: N2YO · Heavens-Above · Gunter

§ Orbital elements

Epoch: 2026-09-20T04:15:43.170336Z

Period
96.54 min
Inclination
97.6096°
Eccentricity
0.0013556
Mean motion
14.91612017 rev/d
Perigee alt
583.5 km
Apogee alt
602.4 km
Semi-major
6,971.0 km
B*
1.3105e-4
RAAN
243.8943°
Arg perigee
257.9884°
Mean anomaly
101.9816°
Rev number
75,388

§ Raw data

SJ-9B1 38861U 12056B   26263.17758299  .00001263  00000+0  13105-3 0  99912 38861  97.6096 243.8943 0013556 257.9884 101.9816 14.91612017753880

JSON: /api/v1/satellites/38861 · /tle

For live sub-satellite position, see the globe view (requires WebGL).

§ Visibility from observer

Set your observer location to see the next 7 days of passes ≥ 10°. The values pass through the URL so the page stays shareable.

No JS? Fill the form by hand. The geolocation button needs JavaScript.

§ Radio — SatNOGS DB

ModeDescriptionDownlinkUplink
FM S-band telemetry 2.255 GHz

1 transmitter · refreshed weekly from db.satnogs.org